Tracking 19651 objects as of 22-Apr-2019
HD Live streaming from Space Station
objects crossing your sky now

ATS 6

Track ATS 6 now!
ATS 6 is classified as:


NORAD ID: 7318
Int'l Code: 1974-039A
Perigee: 35,217.9 km
Apogee: 35,426.5 km
Inclination: 8.3 °
Period: 1,412.1 minutes
Semi major axis: 41693 km
RCS: 6.3095 m2 (large)
Launch date: May 30, 1974
Source: United States (US)
Launch site: AIR FORCE EASTERN TEST RANGE (AFETR)
aabbcc
Your satellite tracking list
Your tracking list is empty




NASA's NSSDC Master Catalog

Two Line Element Set (TLE):
1  7318U 74039A   19111.77614076 +.00000011 +00000-0 +00000-0 0  9995
2  7318 008.2716 299.2019 0025019 243.3775 134.2917 01.01977620095357
Source of the keplerian elements: AFSPC